Wind_Speed
22 22 21 23 22 22 24 25 24 21 20 19 20 21 20 18 17 17 17 18 20 20 21 21 19 16 7 4 7 6 3 13 13 10 5 2 1 3 1 3 2 3 5 4 5 7 3
25 24 23 23 24 22 22 22 21 22 23 22 22 21 20 20 17 17 18 17 20 20 20 18 15 12 3 5 3 2 7 13 10 10 5 5 3 4 3 4 4 6 4 5 4 5 5
27 27 26 27 25 24 23 22 22 20 20 23 21 19 20 20 19 17 18 19 20 20 20 15 10 7 1 13 3 3 7 5 7 8 3 6 3 2 2 4 3 4 3 5 2 4 3
32 31 29 28 26 27 24 23 22 23 20 20 21 20 18 20 19 19 19 20 21 22 20 10 6 3 7 5 6 12 10 8 7 8 9 7 2 3 2 3 7 5 2 3 2 4 4
31 35 33 32 29 27 26 24 23 23 22 20 19 19 19 20 19 19 20 22 23 24 10 4 1 2 9 6 7 9 16 7 5 6 7 8 1 1 5 3 4 6 1 1 1 6 3
34 30 36 35 32 31 28 26 24 23 23 21 20 19 17 18 17 20 20 23 18 6 1 2 2 2 7 2 2 2 7 12 3 3 0 2 5 2 3 4 2 3 1 1 2 4 2
37 35 29 36 36 33 31 28 27 23 22 22 20 17 17 17 19 18 17 10 4 3 3 7 4 3 5 10 4 5 6 10 2 4 2 2 4 5 8 6 2 1 2 1 2 3 5
38 39 37 32 34 36 34 29 26 24 22 21 18 16 16 15 17 14 12 1 2 1 8 11 13 8 14 2 4 4 14 5 5 5 2 5 5 8 5 3 4 5 2 2 2 3 1
40 40 40 41 34 34 36 34 29 25 22 21 20 17 13 13 13 11 10 9 5 7 4 7 6 5 6 12 7 6 9 5 4 6 4 5 5 1 5 4 3 3 1 2 3 2 4
44 42 42 40 39 37 35 36 34 29 24 20 19 16 14 11 7 8 7 0 12 9 4 6 5 6 7 7 4 11 13 6 2 8 8 5 4 5 5 5 5 1 3 0 4 3 2
48 46 45 43 41 37 40 37 37 34 29 26 23 18 13 14 2 4 1 9 6 3 4 3 3 5 6 10 5 7 8 4 8 6 6 7 3 4 3 6 4 4 5 2 3 3 4
51 49 47 44 42 41 39 39 39 36 31 26 22 17 15 13 18 12 3 14 3 4 7 5 6 6 6 4 3 4 4 3 4 5 1 6 1 3 5 3 3 4 3 5 4 3 2
52 51 50 47 44 42 42 41 38 38 34 28 23 19 19 12 6 19 14 4 2 5 4 4 5 5 5 6 5 4 7 7 6 5 3 1 3 3 3 3 4 6 5 3 3 3 4
55 53 52 49 46 44 41 40 39 39 35 31 28 21 21 23 20 5 5 3 9 6 11 5 2 4 9 5 6 4 6 6 2 5 3 6 5 3 1 4 6 4 7 5 3 2 3
56 55 53 52 49 46 42 39 47 40 36 32 24 23 20 22 19 11 3 9 5 5 4 3 4 4 4 5 5 5 8 8 8 7 7 5 5 2 2 2 4 4 3 4 7 3 3
55 55 54 54 52 47 44 40 39 41 37 32 27 13 19 23 24 11 5 16 9 5 2 2 5 5 9 6 6 9 8 6 7 10 5 7 0 1 2 2 1 4 7 4 3 3 3
54 54 54 54 55 50 45 43 38 39 39 33 22 6 12 26 24 4 15 13 19 13 3 2 2 4 5 7 8 6 10 3 8 5 5 5 4 3 0 5 7 2 2 5 5 4 4
46 52 54 55 57 53 49 45 41 44 41 36 12 7 30 35 10 9 19 10 13 18 5 6 2 4 5 6 6 7 10 10 9 10 9 6 6 5 8 1 2 3 6 6 5 4 1
48 47 49 55 59 56 51 48 46 47 47 32 5 4 33 30 13 16 12 21 8 17 11 6 5 5 2 2 3 7 7 4 9 8 9 7 1 1 8 4 2 3 4 4 5 3 6
48 46 49 52 59 58 54 51 48 51 54 35 4 8 7 13 13 18 22 16 23 7 7 3 2 3 1 4 4 4 7 2 7 8 8 8 4 9 10 7 5 4 6 5 6 4 4
51 49 47 49 60 59 54 50 53 55 56 37 5 6 6 13 22 17 22 15 21 17 15 10 3 6 3 2 2 4 2 3 3 5 4 7 7 5 6 6 5 6 5 8 7 6 6
52 51 48 48 60 59 52 51 55 66 58 22 6 4 4 2 17 22 16 24 25 23 10 10 8 8 7 5 5 1 1 4 6 5 5 0 4 4 2 3 2 4 6 7 5 4 4
53 50 48 46 62 60 53 54 64 61 55 11 11 5 3 12 19 19 28 20 21 17 16 8 16 11 3 16 13 9 6 4 2 7 8 7 7 4 4 2 3 6 7 8 6 5 7
51 49 48 46 62 61 59 57 62 60 59 17 19 2 4 6 14 21 21 19 22 23 9 21 12 3 6 2 4 4 5 5 7 5 2 7 7 3 3 3 1 7 1 4 9 6 5
47 46 46 54 63 62 62 64 64 60 54 24 20 8 3 5 11 12 19 23 14 15 16 12 9 9 1 6 2 1 4 3 3 6 4 2 6 3 5 4 5 4 5 7 8 8 7
42 45 42 59 64 62 60 62 67 60 57 34 19 19 2 3 8 9 17 15 18 15 7 12 12 7 4 3 2 5 6 6 4 3 3 6 7 4 3 4 8 8 5 4 4 4 8
36 35 53 61 61 59 56 58 58 57 54 39 24 20 2 2 2 7 12 15 12 12 4 6 11 4 6 2 2 3 5 4 6 10 6 3 4 5 2 3 7 8 3 5 6 8 9
26 52 57 57 56 54 54 54 53 51 47 39 35 25 5 3 7 7 2 9 10 15 9 4 7 4 2 6 4 4 4 6 4 4 7 7 7 4 3 3 7 8 4 9 7 1 6
51 55 53 52 52 51 51 50 47 45 44 33 10 33 19 5 3 6 12 18 8 7 12 6 6 7 6 4 1 4 3 1 3 3 1 3 7 6 9 7 5 6 4 6 5 6 7
Wind_Direction
281 282 282 283 281 278 280 283 274 270 277 274 272 279 290 299 306 314 318 323 322 328 332 331 333 346 351 327 252 322 50 147 169 157 145 199 170 130 251 218 226 219 257 245 273 134 89
278 278 277 280 281 279 284 281 283 277 271 274 280 273 278 288 301 308 313 319 318 323 328 329 334 348 13 274 276 317 154 152 172 161 159 204 215 210 257 240 179 213 256 281 109 155 145
275 275 275 274 276 279 280 284 285 281 280 269 273 273 279 284 293 303 309 314 313 317 320 323 335 346 21 244 204 145 176 184 176 173 176 227 246 300 289 294 281 253 276 112 52 179 147
272 272 272 273 272 272 272 278 280 286 285 277 268 271 270 282 287 300 306 310 311 309 307 310 332 340 251 258 243 240 213 228 231 209 226 271 233 254 229 309 347 351 36 37 174 172 87
270 267 268 267 271 273 271 272 275 278 282 285 274 269 273 280 283 296 304 310 310 301 287 281 12 66 266 278 254 246 230 217 164 197 234 271 103 234 12 51 359 2 173 17 107 218 113
271 274 264 264 263 266 270 270 269 273 278 280 283 273 269 274 283 293 303 313 309 296 140 136 94 9 265 262 299 244 218 218 109 100 76 168 49 35 19 68 223 290 21 117 210 216 96
264 269 273 259 260 262 264 265 267 267 273 278 279 280 268 272 284 285 310 322 340 266 190 207 179 247 276 315 295 221 170 138 120 84 206 11 72 226 225 193 160 330 285 261 284 246 126
263 264 265 268 256 256 257 259 261 265 265 272 274 278 273 273 288 283 301 250 273 317 305 236 236 253 267 281 290 265 162 129 149 179 178 35 237 235 186 183 190 211 195 277 214 345 96
259 258 259 260 261 250 253 253 255 257 257 261 269 274 275 269 276 279 261 254 275 282 277 280 203 199 198 161 210 247 156 149 151 149 186 157 239 112 172 173 180 219 95 71 249 38 53
252 253 254 254 256 255 244 245 249 248 247 255 260 267 267 265 261 245 258 322 313 158 297 263 231 248 161 159 235 207 190 147 164 196 153 230 262 235 254 185 189 25 148 129 279 110 191
250 247 247 248 249 252 252 238 241 241 245 245 251 262 240 241 216 232 128 348 98 88 298 220 187 167 159 162 150 213 172 65 160 165 116 246 267 230 204 232 160 238 76 74 11 98 95
246 243 242 243 244 244 250 245 237 236 235 239 235 238 228 246 231 237 202 335 182 52 250 313 158 165 143 209 192 123 143 91 152 140 242 238 201 186 226 197 191 103 60 44 53 51 46
245 240 237 236 239 239 239 247 234 234 230 227 225 227 221 223 226 240 276 324 192 193 309 247 203 165 175 169 195 148 150 163 157 118 192 303 243 270 248 97 38 75 66 338 344 13 216
243 238 234 231 231 234 234 235 241 223 226 225 220 220 226 225 207 208 142 229 223 215 220 310 273 123 183 148 222 153 120 155 191 106 127 165 292 203 262 157 179 182 155 155 234 194 275
241 237 232 227 226 227 229 229 233 215 217 218 216 225 233 229 208 213 162 224 210 206 230 258 314 143 212 222 151 139 176 185 186 166 156 154 257 280 234 96 129 206 119 161 106 15 47
240 235 231 224 220 220 222 223 229 217 209 210 209 216 223 215 198 182 212 223 207 230 3 337 209 208 182 201 156 175 173 198 198 184 150 206 222 216 291 83 136 216 152 83 17 161 235
238 235 230 222 214 215 215 218 217 217 196 198 191 208 211 196 178 193 214 214 223 271 1 303 302 294 217 172 178 176 195 252 186 163 117 132 126 255 3 205 192 153 132 64 116 133 175
242 234 228 220 210 209 210 212 209 207 187 187 193 202 163 170 187 205 220 173 218 239 269 259 295 241 234 196 166 177 189 199 173 146 154 195 146 193 206 203 299 166 175 142 134 211 137
237 232 231 220 207 204 203 204 203 200 181 177 199 178 171 171 192 208 205 213 238 222 221 211 232 212 340 271 200 179 201 235 152 142 158 180 189 57 329 338 15 202 182 132 105 73 188
230 227 224 222 204 199 199 200 201 194 180 178 193 177 168 199 218 193 196 200 208 223 232 172 291 278 283 304 251 231 199 191 177 178 119 105 143 172 215 215 173 195 185 175 143 129 183
225 223 219 217 199 194 196 197 195 185 178 176 209 220 187 187 207 203 196 189 198 216 205 191 257 220 165 230 278 186 172 116 90 153 109 134 195 182 208 204 193 213 196 168 183 198 168
220 217 215 211 198 190 189 192 185 179 179 180 187 211 177 203 197 199 199 208 196 205 171 205 202 206 208 212 209 23 193 190 181 205 144 292 184 174 150 135 166 229 230 189 211 175 239
212 212 210 207 189 183 185 186 178 177 175 175 203 277 260 207 183 191 209 197 202 196 220 182 206 221 232 226 249 257 221 226 231 175 167 149 132 129 218 16 57 329 222 211 220 206 173
203 204 201 200 180 176 178 175 170 176 181 175 186 186 236 194 191 204 192 198 198 200 188 213 227 132 222 107 100 42 46 77 88 40 91 139 114 98 167 41 251 241 206 210 218 232 221
191 193 192 190 175 173 177 178 177 183 187 189 176 187 244 211 198 200 198 195 207 208 223 232 217 239 83 23 74 136 326 23 39 31 19 87 120 106 144 192 294 278 199 176 178 259 195
183 186 190 177 169 172 173 176 180 187 192 192 174 185 321 332 210 170 190 181 193 215 213 222 231 250 74 138 140 180 202 179 198 107 55 68 66 119 135 158 217 228 231 153 109 268 180
170 183 176 165 164 171 174 176 179 183 188 188 200 213 351 303 302 195 179 187 177 192 197 170 201 189 143 154 155 168 234 209 161 159 168 64 25 146 122 209 285 245 222 141 130 238 170
181 166 155 157 163 171 174 179 181 185 184 184 202 215 248 202 269 314 230 162 171 200 185 161 144 204 62 184 160 196 200 218 117 170 173 156 148 177 91 72 280 176 98 169 214 292 160
144 144 149 155 161 165 168 172 176 180 182 175 186 206 229 277 312 310 292 280 244 202 181 209 190 157 174 164 166 102 215 99 136 208 92 198 178 178 180 207 221 203 202 237 176 159 172
Height
824 823 823 823 823 822 822 822 821 821 820 819 820 820 819 816 815 812 810 808 806 802 798 796 793 791 788 787 777 770 768 769 772 773 775 779 780 782 786 784 782 787 776 771 769 771 772
820 819 820 820 820 817 819 817 817 817 817 817 817 817 816 815 812 811 809 806 804 801 797 794 792 792 792 790 770 769 769 770 771 772 775 778 778 777 780 781 782 774 772 771 771 771 770
814 815 815 815 816 815 815 815 814 813 812 813 813 813 814 814 812 808 807 805 802 799 796 793 791 792 792 779 768 768 769 770 771 771 775 775 775 778 775 778 770 771 773 772 774 771 772
808 809 811 810 810 812 810 812 811 811 809 809 809 809 810 811 810 808 804 803 799 797 794 791 790 792 787 766 766 766 768 769 770 770 773 774 773 775 776 773 774 777 773 783 775 770 771
801 802 803 805 805 806 807 807 808 808 807 808 806 807 806 808 807 805 802 800 795 793 790 789 790 791 783 766 763 762 765 767 767 769 772 773 772 778 777 785 794 791 792 785 781 771 773
793 794 796 798 798 801 801 803 803 804 805 805 805 804 804 806 804 803 799 798 791 790 788 789 789 792 770 764 760 761 761 764 765 767 773 774 782 789 792 796 809 795 790 787 785 777 776
786 787 787 790 792 793 796 796 800 799 801 802 802 802 802 803 803 801 797 796 794 792 787 776 775 773 767 763 760 758 759 763 765 770 784 780 793 800 788 786 781 784 786 784 777 771 778
777 778 781 781 783 786 789 791 793 795 796 798 799 799 800 802 802 800 799 796 795 798 788 770 766 768 764 766 768 757 758 764 770 781 780 789 797 781 776 779 781 782 784 787 780 774 777
767 768 772 775 775 777 781 785 787 789 792 794 795 797 798 801 799 800 798 794 793 792 794 765 758 757 758 760 762 759 755 760 767 779 781 791 779 771 772 778 781 780 779 782 786 780 786
755 758 761 764 767 770 771 775 781 783 785 791 791 793 798 798 803 796 795 792 790 789 800 763 757 745 749 751 757 747 748 754 764 775 782 783 771 771 771 775 776 779 773 777 781 789 803
743 746 749 752 755 760 763 768 771 776 781 784 787 791 792 797 795 795 790 794 790 790 816 748 747 738 739 745 744 746 744 749 768 769 775 779 768 771 774 770 764 774 769 777 778 788 794
727 732 738 741 746 748 754 758 765 769 773 780 782 784 791 790 792 791 788 793 793 801 803 752 741 745 747 743 742 744 746 745 753 765 768 770 760 766 767 762 761 763 771 785 794 800 819
713 717 723 727 734 741 742 750 755 762 768 772 778 779 783 786 787 790 790 793 796 804 759 749 746 743 746 749 748 744 755 761 771 784 782 770 766 761 759 765 766 773 789 812 812 825 823
696 702 709 715 721 729 734 739 747 753 761 767 772 775 775 780 784 789 789 796 791 769 756 744 739 743 748 745 748 748 755 767 760 766 788 788 793 764 756 762 773 779 788 818 815 830 809
680 685 692 700 707 717 723 730 737 745 753 763 769 770 771 773 778 787 790 788 762 761 748 747 739 747 749 743 745 748 758 764 759 759 778 789 784 763 760 760 767 779 788 785 817 830 826
662 668 676 684 694 703 712 721 728 738 746 757 763 766 762 771 773 784 782 766 761 749 744 744 750 741 751 749 747 751 761 749 751 752 750 770 781 768 764 761 763 770 774 797 811 810 815
644 651 659 668 678 690 701 711 719 732 738 751 760 760 748 765 770 774 760 755 755 746 746 749 747 745 741 744 745 753 754 742 741 751 751 763 771 778 769 772 772 775 781 791 797 813 817
628 634 643 652 663 676 688 701 710 723 731 744 748 751 742 753 760 753 750 748 751 749 745 747 743 743 740 739 744 746 749 739 733 742 757 757 774 797 773 759 758 761 772 782 809 801 826
615 620 628 637 648 661 675 689 701 713 720 736 737 737 740 744 745 737 742 744 749 746 746 745 744 738 733 735 740 740 741 728 734 738 751 756 776 801 785 770 764 765 768 776 790 804 808
599 607 614 624 633 647 662 676 690 702 711 727 733 733 734 736 720 726 735 737 745 739 742 741 742 737 735 736 735 734 736 728 732 732 738 741 766 771 780 773 769 770 767 773 777 807 799
583 592 601 610 618 634 649 665 679 692 703 718 722 715 703 711 719 719 723 723 737 737 734 738 743 742 737 741 736 734 732 732 732 738 739 742 761 763 759 757 760 759 755 771 772 772 781
566 577 589 600 609 622 639 653 666 681 697 706 711 707 699 703 713 720 718 716 721 730 730 735 737 735 739 744 736 733 734 734 732 738 740 745 757 757 759 759 757 758 756 762 764 763 767
550 563 576 588 596 613 630 644 658 673 688 696 706 703 700 698 705 715 692 705 715 725 726 724 728 735 737 733 726 727 730 730 730 731 740 748 764 772 768 773 764 780 764 758 757 753 753
537 553 566 579 586 605 624 640 650 665 675 684 691 697 696 696 693 688 702 708 710 711 721 721 725 733 730 726 726 728 732 732 730 735 733 753 758 777 792 786 793 749 743 743 751 749 748
529 545 559 572 583 600 618 635 648 662 674 680 687 694 695 695 689 691 698 703 714 714 718 720 722 724 726 732 738 739 750 734 737 740 739 738 758 778 779 784 765 743 744 747 748 747 744
527 541 553 565 580 598 615 631 645 659 670 681 685 692 696 691 685 687 695 701 710 713 723 719 724 723 731 739 753 745 745 738 745 738 741 742 753 759 792 781 780 750 729 731 733 756 739
528 538 550 564 579 599 615 630 643 656 669 678 686 695 699 697 684 683 686 693 701 709 713 718 721 725 726 758 755 752 743 730 741 739 749 763 774 769 805 787 764 737 728 730 753 746 732
529 539 552 568 585 602 617 630 643 656 668 677 685 694 698 696 687 688 681 684 692 695 706 710 722 723 740 739 742 745 757 735 738 729 733 738 762 779 791 789 761 727 731 740 729 724 727
535 546 562 578 592 607 620 633 645 657 667 679 690 694 698 697 689 686 684 682 687 683 695 701 697 702 709 723 735 742 739 753 734 739 727 730 729 744 745 741 722 721 719 717 719 720 725